"Pseudo-MPEC" for P110jZ0

Created 2020 May 23 19:07:18 UT using Find_Orb

Click here for an explanation of pseudo-MPECs

 
 Astrometry: 
     P110jZ0  C2020 05 16*'tfAstrometryqvMXredacted;NwfW1#Qclick,OwETWhr1[?(9F51
     P110jZ0  C2020 05 16]0@2PherekforbW$7TjHfmSLB*KQmIexplanationM(B0)HI@2C,F51
     P110jZ0  C2020 05 16bhotl`N7bn*t'yXl[ju$X#x9_UhTO5nXLVVr!7sIiG+YBc3i6R\6F51

Station data:
(F51) Pan-STARRS 1, Haleakala  (N20.707235 W156.255910)  US/Hawaii.
   Observers N. Primak, A. Schultz, S. Watters, J. Thiel, T. Goggia. Measurer
   PS1 Science Consortium. 1.8-m Ritchey-Chrétien + CCD.

Orbital elements:  P110jZ0
   Perihelion 2020 Apr 19.233468 +/- 46.6 TT =  5:36:11 (JD 2458958.733468)
Epoch 2020 May 16.0 TT = JDT 2458985.5   Earth MOID: 0.2877   AutoNEOCP
M   7.09602179 +/- 34               (J2000 ecliptic)
n   0.26510800 +/- 0.308            Peri.  357.74307 +/- 80
a   2.39986874 +/- 1.86             Node   224.74230 +/- 60
e   0.4599831 +/- 0.263             Incl.   24.86333 +/- 12
P   3.72                   H 22.4   G  0.15   U 12.0  SR
q 1.29596959 +/- 0.413    Q 3.50376789 +/- 26.6
From 3 observations 2020 May 16 (30.1 min); mean residual 0".09
Residuals in arcseconds: 
200516 F51  .00   .02+    200516 F51  .16+  .11-    200516 F51  .07+  .02+    

Ephemerides (geocentric):
Date (UTC) HH   RA              Dec         delta   r     elong  mag " sig PA
---- -- -- --  -------------   -----------  ------ ------ -----  --- ---- ---
2020 05 23 19  17 36 38.974   +13 03 22.21  .40215 1.3429 139.1 22.3  61d 177
2020 05 23 20  17 36 38.561   +13 05 31.34  .40232 1.3430 139.1 22.3  61d 177
2020 05 23 21  17 36 38.145   +13 07 40.29  .40248 1.3431 139.1 22.3  61d 177
2020 05 23 22  17 36 37.726   +13 09 49.05  .40264 1.3432 139.1 22.3  62d 177
2020 05 23 23  17 36 37.302   +13 11 57.63  .40281 1.3433 139.1 22.3  62d 177
2020 05 24 00  17 36 36.876   +13 14 06.02  .40297 1.3434 139.1 22.3  63d 177
2020 05 24 01  17 36 36.446   +13 16 14.23  .40314 1.3435 139.1 22.3  63d 177
2020 05 24 02  17 36 36.012   +13 18 22.25  .40331 1.3436 139.1 22.3  63d 177
2020 05 24 03  17 36 35.575   +13 20 30.08  .40347 1.3438 139.0 22.3  63d 178
2020 05 24 04  17 36 35.134   +13 22 37.73  .40364 1.3439 139.0 22.3  63d 178
2020 05 24 05  17 36 34.690   +13 24 45.20  .40380 1.3440 139.0 22.3  63d 178
2020 05 24 06  17 36 34.243   +13 26 52.48  .40397 1.3441 139.0 22.3  63d 178
2020 05 24 07  17 36 33.792   +13 28 59.57  .40414 1.3442 139.0 22.3  63d 178
2020 05 24 08  17 36 33.338   +13 31 06.48  .40431 1.3443 139.0 22.3  64d 178
2020 05 24 09  17 36 32.880   +13 33 13.20  .40447 1.3444 139.0 22.3  64d 179
2020 05 24 10  17 36 32.419   +13 35 19.73  .40464 1.3445 139.0 22.3  64d 179
2020 05 24 11  17 36 31.955   +13 37 26.08  .40481 1.3446 138.9 22.3  64d 179
2020 05 24 12  17 36 31.487   +13 39 32.24  .40498 1.3448 138.9 22.3  64d 179
2020 05 24 13  17 36 31.016   +13 41 38.22  .40515 1.3449 138.9 22.3  64d 179
2020 05 24 14  17 36 30.542   +13 43 44.01  .40532 1.3450 138.9 22.3  64d 179
2020 05 24 15  17 36 30.064   +13 45 49.61  .40549 1.3451 138.9 22.3  64d 179
2020 05 24 16  17 36 29.583   +13 47 55.03  .40566 1.3452 138.9 22.3  64d 179
2020 05 24 17  17 36 29.098   +13 50 00.26  .40583 1.3453 138.9 22.3  64d   0
2020 05 24 18  17 36 28.610   +13 52 05.30  .40600 1.3454 138.9 22.3  64d   0
2020 05 24 19  17 36 28.119   +13 54 10.16  .40617 1.3455 138.9 22.3  64d   0
2020 05 24 20  17 36 27.625   +13 56 14.83  .40634 1.3457 138.8 22.3  64d   0
2020 05 24 21  17 36 27.127   +13 58 19.32  .40651 1.3458 138.8 22.3  64d   0
2020 05 24 22  17 36 26.626   +14 00 23.61  .40668 1.3459 138.8 22.3  64d   0
2020 05 24 23  17 36 26.122   +14 02 27.72  .40685 1.3460 138.8 22.3  64d   0
2020 05 25 00  17 36 25.615   +14 04 31.65  .40702 1.3461 138.8 22.3  64d   0
2020 05 25 01  17 36 25.104   +14 06 35.38  .40720 1.3462 138.8 22.3  64d   0
2020 05 25 02  17 36 24.590   +14 08 38.94  .40737 1.3463 138.8 22.3  64d   0
2020 05 25 03  17 36 24.073   +14 10 42.30  .40754 1.3464 138.8 22.3  64d   0
2020 05 25 04  17 36 23.553   +14 12 45.48  .40771 1.3466 138.7 22.3  64d 179
2020 05 25 05  17 36 23.030   +14 14 48.47  .40789 1.3467 138.7 22.3  65d 179
2020 05 25 06  17 36 22.503   +14 16 51.27  .40806 1.3468 138.7 22.3  65d 179
2020 05 25 07  17 36 21.973   +14 18 53.88  .40824 1.3469 138.7 22.4  66d 178
2020 05 25 08  17 36 21.440   +14 20 56.31  .40841 1.3470 138.7 22.4  66d 178
2020 05 25 09  17 36 20.904   +14 22 58.55  .40858 1.3471 138.7 22.4  66d 178
2020 05 25 10  17 36 20.365   +14 25 00.61  .40876 1.3472 138.7 22.4  67d 178
2020 05 25 11  17 36 19.822   +14 27 02.48  .40893 1.3474 138.7 22.4  67d 178
2020 05 25 12  17 36 19.277   +14 29 04.16  .40911 1.3475 138.6 22.4  67d 179
2020 05 25 13  17 36 18.728   +14 31 05.65  .40928 1.3476 138.6 22.4  67d 179
2020 05 25 14  17 36 18.177   +14 33 06.96  .40946 1.3477 138.6 22.4  67d 179
2020 05 25 15  17 36 17.622   +14 35 08.07  .40964 1.3478 138.6 22.4  67d 179
2020 05 25 16  17 36 17.064   +14 37 09.01  .40981 1.3479 138.6 22.4  67d 179
2020 05 25 17  17 36 16.503   +14 39 09.75  .40999 1.3480 138.6 22.4  67d 179
2020 05 25 18  17 36 15.939   +14 41 10.31  .41017 1.3482 138.6 22.4  67d 179